Content
SEND FEEDBACK

Daily
Averages
Monthly
Summary
Slovakia

DVOR CIERNA VODA, SLOVAKIA


Home > Europe > Slovakia
Elevation: 466 feet     Latitude: 48 12N     Longitude: 017 12E

WEATHER
 
SELECT A DAY
Number of Records: 329,123;   Date Range: 7/1/96 - 11/26/14
 
SHARE

PRINT THIS DATA

[ ← Previous Day ]
WEATHER ALMANAC - FEBRUARY 13, 2013
[ Next Day → ]
[ °C ]   °F
Weather ElementAverageHighLow
Temperature32.6 °F34 °F (7:00 pm)31 °F (6:00 am)
Dewpoint28.6 °F30.2 °F (12:00 am)26.6 °F (9:30 am)
Humidity83.4 %93 % (12:00 am)73 % (1:00 pm)
Barometer30.03 in30.16 in (10:00 pm)29.89 in (12:00 am)
Wind Speed16.4 mph23 mph (2:00 pm)
Wind Gust33.4 mph (8:30 pm)
Weather ElementAverage
Visibility3 mi
Wind DirectionNW (319.2 °)

Weather ElementTotal
Precipitation---
Heating Degree Days32.5 (Base 65)
Averaged from 71 records on February 13, 2013
WEATHER CONDITIONS BREAKOUT
WIND DIRECTION BREAKOUT
WEATHER BY HOUR - FEBRUARY 13, 2013
[ °C ]   °F
Local TimeTemperatureDewpointHumidityBarometerVisibilityWind DirectionWind SpeedGust SpeedPrecipitationEventsConditions
12:00 AM32.0 °F30.2 °F93 %29.89 in1.4 miNNW (330°)5.8 mphSnowLight Snow
12:30 AM32.0 °F30.2 °F93 %29.89 in1.4 miNW (310°)5.8 mphSnowLight Snow
1:00 AM32.0 °F30.0 °F89 %29.94 in1.0 miNW (320°)6.7 mphSnowLight Snow
1:00 AM32.0 °F30.2 °F93 %29.89 in1.5 miNW (320°)6.9 mphSnowLight Snow
1:30 AM32.0 °F30.2 °F93 %29.92 in1.6 miNW (320°)9.2 mphSnowLight Snow
2:00 AM32.0 °F29.0 °F86 %29.95 in3.0 miNW (320°)11.2 mphSnowLight Snow
2:00 AM32.0 °F30.2 °F93 %29.92 in3.1 miNNW (330°)11.5 mphSnowLight Snow
2:30 AM32.0 °F28.4 °F87 %29.92 in5.0 miNNW (330°)9.2 mphSnowLight Snow
3:00 AM32.0 °F28.4 °F87 %29.92 in3.1 miNNW (340°)9.2 mphSnowLight Snow
3:00 AM32.0 °F28.0 °F81 %29.96 in3.0 miNNW (340°)8.9 mphSnowLight Snow
3:30 AM32.0 °F28.4 °F87 %29.92 in3.1 miNNW (340°)12.7 mphSnowLight Snow
4:00 AM32.0 °F28.0 °F79 %29.97 in3.0 miNNW (330°)11.2 mphSnowLight Snow
4:00 AM32.0 °F28.4 °F87 %29.95 in3.1 miNNW (330°)10.4 mphSnowLight Snow
4:30 AM32.0 °F28.4 °F87 %29.95 in3.1 miNW (320°)12.7 mphSnowLight Snow
5:00 AM32.0 °F28.0 °F81 %29.98 in3.0 miNW (320°)11.2 mphSnowLight Snow
5:00 AM32.0 °F28.4 °F87 %29.95 in3.1 miNW (320°)10.4 mphSnowLight Snow
5:30 AM32.0 °F28.4 °F87 %29.95 in3.1 miNW (320°)11.5 mphSnowLight Snow
6:00 AM32.0 °F28.4 °F87 %29.95 in3.1 miNW (320°)13.8 mphSnowLight Snow
6:00 AM31.0 °F28.0 °F82 %29.99 in3.0 miNW (310°)13.4 mphSnowLight Snow
6:30 AM32.0 °F28.4 °F87 %29.95 in3.1 miNW (320°)15.0 mphSnowLight Snow
7:00 AM31.0 °F28.0 °F84 %30.00 in3.0 miNW (320°)15.7 mphSnowLight Snow
7:00 AM32.0 °F28.4 °F87 %29.98 in2.8 miNW (320°)15.0 mphSnowLight Snow
7:30 AM32.0 °F28.4 °F87 %29.98 in3.1 miNW (310°)15.0 mphSnowLight Snow
8:00 AM32.0 °F28.0 °F78 %30.03 in3.0 miNW (320°)15.7 mphSnowLight Snow
8:00 AM32.0 °F28.4 °F87 %29.98 in2.8 miNW (320°)16.1 mphSnowLight Snow
8:30 AM32.0 °F28.4 °F87 %30.01 in1.6 miNW (320°)15.0 mphSnowLight Snow
9:00 AM32.0 °F28.4 °F87 %30.01 in1.7 miNW (310°)17.3 mphSnowLight Snow
9:00 AM32.0 °F28.0 °F79 %30.04 in2.0 miNW (310°)15.7 mphSnowLight Snow
9:30 AM32.0 °F26.6 °F80 %30.01 inNW (320°)16.1 mph29.9 mphSnowLight Snow
10:00 AM32.0 °F28.0 °F78 %30.05 in2.0 miNW (310°)17.9 mphSnowLight Snow
10:00 AM32.0 °F28.4 °F87 %30.01 inNW (320°)17.3 mph28.8 mphSnowLight Snow
10:30 AM32.0 °F26.6 °F80 %30.01 in2.8 miNW (320°)18.4 mph29.9 mphSnowLight Snow
11:00 AM32.0 °F28.0 °F77 %30.06 in3.0 miNW (310°)17.9 mphSnowLight Snow
11:00 AM32.0 °F26.6 °F80 %30.04 in3.1 miNW (310°)18.4 mphSnowLight Snow
11:30 AM32.0 °F28.4 °F87 %30.04 in2.8 miNW (320°)19.6 mphSnowLight Snow
12:00 PM32.0 °F28.4 °F87 %30.04 in1.9 miNW (320°)20.7 mphSnowLight Snow
12:00 PM33.0 °F28.0 °F74 %30.08 in2.0 miNW (320°)20.1 mphSnowLight Snow
12:30 PM32.0 °F26.6 °F80 %30.04 inNW (320°)20.7 mphSnowLight Snow
1:00 PM33.0 °F28.0 °F73 %30.08 in2.0 miNW (310°)22.4 mphSnowLight Snow
1:00 PM32.0 °F28.4 °F87 %30.04 in2.5 miNW (320°)21.9 mphSnowLight Snow
1:30 PM32.0 °F28.4 °F87 %30.04 inNW (320°)21.9 mphSnowLight Snow
2:00 PM33.0 °F28.0 °F76 %30.09 in2.0 miNW (320°)22.4 mphSnowLight Snow
2:00 PM33.8 °F28.4 °F81 %30.04 in1.7 miNW (320°)23.0 mphSnowLight Snow
2:30 PM33.8 °F28.4 °F81 %30.04 inNW (320°)21.9 mphSnowLight Snow
3:00 PM33.8 °F28.4 °F81 %30.06 in2.5 miNW (320°)18.4 mphSnowLight Snow
3:00 PM33.0 °F28.0 °F76 %30.09 in2.0 miNW (320°)17.9 mphSnowLight Snow
3:30 PM33.8 °F28.4 °F81 %30.06 inNW (320°)19.6 mphSnowLight Snow
4:00 PM33.0 °F29.0 °F78 %30.09 in4.0 miNW (320°)20.1 mphSnowLight Snow
4:00 PM33.8 °F28.4 °F81 %30.06 in3.7 miNW (320°)19.6 mphSnowLight Snow
4:30 PM33.8 °F28.4 °F81 %30.06 in3.1 miNW (320°)19.6 mphSnowLight Snow
5:00 PM33.0 °F29.0 °F78 %30.10 in3.0 miNW (320°)20.1 mphSnowLight Snow
5:00 PM33.8 °F28.4 °F81 %30.06 in3.1 miNW (320°)20.7 mphSnowLight Snow
5:30 PM33.8 °F28.4 °F81 %30.06 in4.3 miNW (310°)18.4 mphSnowLight Snow
6:00 PM33.8 °F28.4 °F81 %30.06 in2.2 miNW (320°)18.4 mphSnowLight Snow
6:00 PM33.0 °F29.0 °F81 %30.11 in2.0 miNW (320°)17.9 mphSnowLight Snow
6:30 PM33.8 °F30.2 °F87 %30.09 in3.1 miNW (320°)19.6 mphSnowLight Snow
7:00 PM34.0 °F29.0 °F76 %30.12 in4.0 miNW (320°)20.1 mphSnowLight Snow
7:00 PM33.8 °F30.2 °F87 %30.09 in3.7 miNW (320°)18.4 mphSnowLight Snow
7:30 PM33.8 °F30.2 °F87 %30.09 in4.3 miNW (310°)18.4 mphRainRain
8:00 PM34.0 °F29.0 °F76 %30.12 in4.0 miNW (310°)17.9 mphSnowLight Snow
8:00 PM33.8 °F30.2 °F87 %30.09 in4.3 miNW (320°)18.4 mphRainRain
8:30 PM33.8 °F28.4 °F81 %30.09 in4.3 miNW (310°)18.4 mph33.4 mphRain-SnowLight Rain
9:00 PM33.8 °F28.4 °F81 %30.09 in5.0 miNW (320°)19.6 mphRainLight Rain
9:00 PM33.0 °F29.0 °F79 %30.15 in5.0 miNW (310°)17.9 mphRainLight Rain
9:30 PM32.0 °F28.4 °F87 %30.12 in4.3 miNW (320°)18.4 mph33.4 mphRainLight Rain
10:00 PM33.0 °F29.0 °F78 %30.16 in4.0 miNW (310°)17.9 mphSnowLight Snow
10:00 PM32.0 °F28.4 °F87 %30.12 in4.3 miNW (310°)18.4 mph29.9 mphSnowLight Snow
10:30 PM32.0 °F28.4 °F87 %30.12 in4.3 miNW (310°)19.6 mph32.2 mphSnowLight Snow
11:00 PM33.0 °F29.0 °F78 %30.16 in4.0 miNW (320°)20.1 mphSnowLight Snow
11:00 PM33.8 °F28.4 °F81 %30.12 in4.3 miNW (320°)18.4 mphSnowLight Snow
11:30 PM32.0 °F28.4 °F87 %30.12 in4.3 miNW (320°)19.6 mphSnowLight Snow
Hourly data recorded from LZIB, located miles away from Dvor Cierna Voda, Slovakia







STORIES FROM OUR PARTNERS